Starlink 3936

operational
NORAD ID: 52674 Int'l Des: 2022-053 Owner: SPXS Country: US Constellation: starlink
LEOCIRCULAR

Über Starlink 3936

Beschreibung wird geladen...

Live-Position

3D-Globus wird geladen...

Nächste Überflüge

Höhenverlauf

Altitude vs Time

uPlot chart will show altitude changes over time

Zweizeiliger Elementsatz

1 52674U 22053U 25310.51044110 .00002566 00000-0 17916-3 0 9999
2 52674 53.2191 347.0908 0001608 92.7006 267.4171 15.08853575192453
Epoch: 6. Nov. 2025 • Age: 18 hours

Aktueller Status

Höhe 539.8 km
Geschwindigkeit 7.60 km/s
Subsatellitenpunkt 19.60°N, 135.24°W
Startdatum 18. Mai 2022
Alter 3.4 years
Typ internet

Technische Details

Klassifizierung Payload
Masse 297.00 kg
Trockenmasse 275.00 kg
Gesamtmasse 297.00 kg
Länge 0.20 m
Durchmesser 2.80 m
Spannweite 9.00 m
Form Box + pan
Hersteller SPXS
Bus-Typ Starlink
Phasenstatus In Orbit
Besitzer/Staat SPXS/US

Große Konstellationen

Loading constellations...